sat.trackr.live / text

‹ back to catalog

STARLINK-31157

NORAD 58735 · 2024-005H

PAYLOAD ACTIVE UNKNOWN

§ Identity

Operator
Country
US
Launch date
2024-01-07
Launch site
AFETR
Launch vehicle
Mass (kg)
RCS (m²)

Purposes: comms

External: N2YO · Heavens-Above · Gunter

§ Orbital elements

Epoch: 2026-09-20T16:00:01.999584Z

Period
94.27 min
Inclination
42.9993°
Eccentricity
0.0001338
Mean motion
15.27568259 rev/d
Perigee alt
482.2 km
Apogee alt
484.0 km
Semi-major
6,861.2 km
B*
7.5632e-4
RAAN
198.3761°
Arg perigee
259.2283°
Mean anomaly
176.3563°
Rev number
587

§ Raw data

STARLINK-311571 58735U 24005H   26263.66668981  .00020601  00000+0  75632-3 0  99922 58735  42.9993 198.3761 0001338 259.2283 176.3563 15.27568259  5878

JSON: /api/v1/satellites/58735 · /tle

For live sub-satellite position, see the globe view (requires WebGL).

§ Visibility from observer

Set your observer location to see the next 7 days of passes ≥ 10°. The values pass through the URL so the page stays shareable.

No JS? Fill the form by hand. The geolocation button needs JavaScript.